Weather History for Alamogordo, NM

Change the Weather History Date:

Saturday, May 25, 2013

  Actual Average Record
Temperature  
Mean Temperature 77 °F -  
Max Temperature 95 °F 89 °F 100 °F (1951)
Min Temperature 59 °F 57 °F 41 °F (2002)
Cooling Degree Days 12    
Growing Degree Days 27 (Base 50)    
Moisture  
Dew Point 35 °F    
Average Humidity 25    
Maximum Humidity 51    
Minimum Humidity 7    
Precipitation  
Precipitation 0.00 in - - ()
Sea Level Pressure  
Sea Level Pressure 30.03 in    
Wind  
Wind Speed 9 mph (SSW)    
Max Wind Speed 20 mph    
Max Gust Speed 26 mph    
Visibility 10 miles    
Events      
Averages and records for this station are not official NWS values.
T = Trace of Precipitation, MM = Missing Value Source: NWS Daily Summary

Daily Weather History Graph

Daily Weather History Graph

Search for Another Location

Airport:

Trip Planner

Search our weather history database for the weather conditions in past years. The results will help you decide how hot, cold, wet, or windy it might be!

Date:

Astronomy

May. 25, 2013 Rise Set
Actual Time 5:59 AM MDT 8:03 PM MDT
Civil Twilight 5:31 AM MDT 8:31 PM MDT
Nautical Twilight 4:57 AM MDT 9:04 PM MDT
Astronomical Twilight 4:21 AM MDT 9:41 PM MDT
Moon 8:54 PM MDT (5/25) 6:27 AM MDT (5/25)
Length of Visible Light 14h 59m
Length of Day
14h 04m
Waxing Gibbous, 99% of the Moon is Illuminated
May 25
Waxing Gibbous
May 31
Last Quarter
Jun 8
New
Jun 16
First Quarter
Jun 23
Full

Hourly Weather History & Observations

Time (MDT) Temp. Dew Point Humidity Pressure Visibility Wind Dir Wind Speed Gust Speed Precip Events Conditions
12:15 AM 77.0 °F 39.2 °F 26% 30.01 in 10.0 mi SSE 12.7 mph - N/A   Clear
12:35 AM 77.0 °F 37.4 °F 24% 30.01 in 10.0 mi SSE 11.5 mph - N/A   Clear
12:55 AM 77.0 °F 39.2 °F 26% 30.01 in 10.0 mi SSE 11.5 mph - N/A   Clear
1:15 AM 75.2 °F 39.2 °F 27% 30.02 in 10.0 mi South 8.1 mph - N/A   Clear
1:35 AM 77.0 °F 39.2 °F 26% 30.01 in 10.0 mi SSE 6.9 mph - N/A   Clear
1:55 AM 69.8 °F 41.0 °F 35% 30.03 in 10.0 mi WNW 9.2 mph 16.1 mph N/A   Clear
2:15 AM 68.0 °F 41.0 °F 37% 30.03 in 10.0 mi North 9.2 mph - N/A   Clear
2:35 AM 68.0 °F 41.0 °F 37% 30.03 in 10.0 mi North 6.9 mph - N/A   Clear
2:55 AM 68.0 °F 41.0 °F 37% 30.04 in 10.0 mi North 9.2 mph - N/A   Clear
3:15 AM 68.0 °F 41.0 °F 37% 30.04 in 10.0 mi NNE 10.4 mph - N/A   Clear
3:35 AM 66.2 °F 41.0 °F 40% 30.05 in 10.0 mi NNE 9.2 mph - N/A   Clear
3:55 AM 68.0 °F 41.0 °F 37% 30.06 in 10.0 mi NNE 8.1 mph - N/A   Clear
4:15 AM 68.0 °F 41.0 °F 37% 30.06 in 10.0 mi North 6.9 mph - N/A   Clear
4:35 AM 64.4 °F 41.0 °F 42% 30.07 in 10.0 mi NW 5.8 mph - N/A   Clear
5:15 AM 64.4 °F 41.0 °F 42% 30.07 in 10.0 mi Calm Calm - N/A   Unknown
5:35 AM 64.4 °F 41.0 °F 42% 30.08 in - WSW 4.6 mph - N/A   Unknown
5:55 AM 62.6 °F 41.0 °F 45% 30.09 in 10.0 mi West 3.5 mph - N/A   Clear
6:15 AM 59.0 °F 41.0 °F 51% 30.10 in 10.0 mi East 4.6 mph - N/A   Clear
6:35 AM 59.0 °F 41.0 °F 51% 30.10 in 10.0 mi East 5.8 mph - N/A   Clear
6:55 AM 59.0 °F 41.0 °F 51% 30.10 in 10.0 mi East 3.5 mph - N/A   Clear
7:15 AM 64.4 °F 42.8 °F 45% 30.10 in 10.0 mi Calm Calm - N/A   Clear
7:35 AM 68.0 °F 44.6 °F 43% 30.11 in 10.0 mi NNW 3.5 mph - N/A   Clear
7:55 AM 69.8 °F 48.2 °F 46% 30.11 in 10.0 mi Calm Calm - N/A   Clear
8:15 AM 71.6 °F 48.2 °F 43% 30.11 in 10.0 mi Calm Calm - N/A   Clear
8:35 AM 71.6 °F 48.2 °F 43% 30.11 in 10.0 mi Calm Calm - N/A   Clear
8:55 AM 73.4 °F 50.0 °F 44% 30.11 in 10.0 mi Calm Calm - N/A   Clear
9:15 AM 75.2 °F 50.0 °F 41% 30.11 in 10.0 mi NE 3.5 mph - N/A   Clear
9:35 AM 77.0 °F 50.0 °F 39% 30.11 in 10.0 mi ESE 6.9 mph - N/A   Clear
9:55 AM 82.4 °F 51.8 °F 35% 30.10 in 10.0 mi SSW 11.5 mph 19.6 mph N/A   Clear
10:15 AM 82.4 °F 50.0 °F 32% 30.10 in 10.0 mi South 15.0 mph - N/A   Clear
10:35 AM 82.4 °F 50.0 °F 32% 30.10 in 10.0 mi SSW 5.8 mph 19.6 mph N/A   Clear
10:55 AM 84.2 °F 50.0 °F 30% 30.09 in 10.0 mi South 10.4 mph 20.7 mph N/A   Clear
11:15 AM 84.2 °F 50.0 °F 30% 30.09 in 10.0 mi SSW 11.5 mph 18.4 mph N/A   Clear
11:35 AM 84.2 °F 50.0 °F 30% 30.08 in 10.0 mi SSW 9.2 mph 17.3 mph N/A   Clear
11:55 AM 86.0 °F 46.4 °F 25% 30.08 in 10.0 mi SSW 12.7 mph 18.4 mph N/A   Clear
12:15 PM 86.0 °F 46.4 °F 25% 30.07 in 10.0 mi SSE 10.4 mph 17.3 mph N/A   Clear
12:35 PM 87.8 °F 48.2 °F 25% 30.06 in 10.0 mi SW 10.4 mph - N/A   Clear
12:55 PM 89.6 °F 48.2 °F 24% 30.05 in 10.0 mi SSW 13.8 mph 21.9 mph N/A   Clear
1:15 PM 91.4 °F 44.6 °F 20% 30.04 in 10.0 mi SW 15.0 mph 20.7 mph N/A   Clear
1:35 PM 91.4 °F 42.8 °F 18% 30.04 in 10.0 mi SSW 5.8 mph 21.9 mph N/A   Clear
1:55 PM 91.4 °F 44.6 °F 20% 30.03 in 10.0 mi WSW 11.5 mph 19.6 mph N/A   Partly Cloudy
2:15 PM 91.4 °F 44.6 °F 20% 30.02 in 10.0 mi SW 13.8 mph 20.7 mph N/A   Clear
2:35 PM 93.2 °F 42.8 °F 17% 30.01 in 10.0 mi SSW 11.5 mph 23.0 mph N/A   Clear
2:55 PM 93.2 °F 39.2 °F 15% 30.00 in 10.0 mi SSW 16.1 mph 26.5 mph N/A   Partly Cloudy
3:15 PM 93.2 °F 41.0 °F 16% 29.99 in 10.0 mi SW 12.7 mph 21.9 mph N/A   Partly Cloudy
3:35 PM 93.2 °F 35.6 °F 13% 29.99 in 10.0 mi SSW 15.0 mph 24.2 mph N/A   Partly Cloudy
3:55 PM 93.2 °F 32.0 °F 11% 29.98 in 10.0 mi SW 12.7 mph 26.5 mph N/A   Partly Cloudy
4:15 PM 95.0 °F 32.0 °F 11% 29.97 in 10.0 mi WSW 19.6 mph 25.3 mph N/A   Clear
4:35 PM 93.2 °F 28.4 °F 10% 29.96 in 10.0 mi SW 6.9 mph 18.4 mph N/A   Clear
4:55 PM 95.0 °F 24.8 °F 8% 29.96 in 10.0 mi SW 11.5 mph 20.7 mph N/A   Clear
5:15 PM 93.2 °F 23.0 °F 8% 29.96 in 10.0 mi West 13.8 mph 25.3 mph N/A   Clear
5:35 PM 93.2 °F 21.2 °F 7% 29.96 in 10.0 mi WSW 13.8 mph 21.9 mph N/A   Clear
5:55 PM 93.2 °F 21.2 °F 7% 29.95 in 10.0 mi SW 13.8 mph 20.7 mph N/A   Clear
6:15 PM 93.2 °F 21.2 °F 7% 29.95 in 10.0 mi SW 5.8 mph 19.6 mph N/A   Clear
6:35 PM 93.2 °F 19.4 °F 7% 29.95 in 10.0 mi SW 11.5 mph 16.1 mph N/A   Clear
6:55 PM 91.4 °F 17.6 °F 7% 29.95 in 10.0 mi SW 12.7 mph 18.4 mph N/A   Clear
7:15 PM 91.4 °F 17.6 °F 7% 29.95 in 10.0 mi WSW 11.5 mph - N/A   Clear
7:35 PM 89.6 °F 15.8 °F 7% 29.95 in 10.0 mi SW 10.4 mph - N/A   Clear
7:55 PM 86.0 °F 15.8 °F 7% 29.95 in 10.0 mi SW 8.1 mph - N/A   Clear
8:15 PM 82.4 °F 15.8 °F 8% 29.96 in 10.0 mi SSW 6.9 mph - N/A   Clear
8:35 PM 77.0 °F 15.8 °F 10% 29.96 in 10.0 mi South 5.8 mph - N/A   Clear
8:55 PM 75.2 °F 14.0 °F 10% 29.96 in 10.0 mi SE 6.9 mph - N/A   Clear
9:15 PM 75.2 °F 15.8 °F 11% 29.97 in 10.0 mi SSE 5.8 mph - N/A   Clear
9:35 PM 73.4 °F 15.8 °F 11% 29.98 in 10.0 mi SSE 8.1 mph - N/A   Clear
9:55 PM 75.2 °F 15.8 °F 11% 29.98 in 10.0 mi SE 6.9 mph - N/A   Clear
10:15 PM 73.4 °F 15.8 °F 11% 29.99 in 10.0 mi SSE 6.9 mph - N/A   Clear
10:35 PM 73.4 °F 15.8 °F 11% 30.00 in 10.0 mi WSW 8.1 mph - N/A   Clear
10:55 PM 73.4 °F 15.8 °F 11% 30.00 in 10.0 mi SSW 5.8 mph - N/A   Clear
11:15 PM 69.8 °F 15.8 °F 13% 30.01 in 10.0 mi SE 6.9 mph - N/A   Clear
11:35 PM 69.8 °F 15.8 °F 13% 30.02 in 10.0 mi SSW 4.6 mph - N/A   Clear
11:55 PM 66.2 °F 17.6 °F 15% 30.02 in 10.0 mi Calm Calm - N/A   Clear